GFSWCAN_con_sbcape_159.txt.gz
CAPE
6 10 9 8 38 37 63 67 69 85 120 157 157 120 124 126 136 74 85 132 213 67 19 6 1 12 4 21 3 1 0 1 1 5 60 68 30 8 0 0 0 0 0 0 0 0 0 6 7 0 248 215 15 27
8 9 10 18 39 64 58 55 58 63 106 235 281 250 73 111 114 114 29 47 155 73 19 0 2 1 0 0 7 9 0 0 3 12 0 0 1 41 0 0 0 0 0 0 0 0 0 1 324 59 40 350 195 153
6 15 16 27 49 82 70 74 111 72 115 214 201 152 149 148 23 74 75 55 96 55 1 3 0 0 0 0 0 21 5 5 7 1 4 1 0 0 87 0 0 0 0 0 0 16 0 0 0 37 108 308 318 369
5 9 11 38 74 74 89 80 122 73 62 144 131 61 25 21 46 46 86 30 75 75 57 0 0 0 0 0 0 0 0 20 41 4 11 12 7 0 16 2 0 0 10 77 0 0 0 0 23 153 379 266 172 154
4 6 21 56 75 67 81 84 66 54 39 38 46 4 1 12 53 97 58 30 36 48 21 7 0 0 0 0 0 0 0 3 18 27 24 40 43 24 1 1 0 0 30 31 3 14 390 52 39 53 116 61 105 14
13 17 31 42 52 58 57 45 51 45 56 23 33 32 24 64 20 14 15 0 0 38 45 35 0 0 0 0 0 0 0 19 45 34 16 64 26 34 16 61 13 0 0 0 24 9 7 0 22 21 0 0 0 0
10 9 11 11 28 59 77 43 26 50 50 39 38 42 54 29 2 10 0 46 0 16 13 11 14 38 0 0 0 2 3 28 38 19 68 56 27 44 43 12 0 0 0 0 0 0 0 0 0 0 0 0 0 0
2 5 6 6 7 22 43 32 30 22 30 44 44 46 49 24 11 6 0 0 42 12 17 33 36 44 14 19 9 14 16 21 35 53 41 93 67 48 33 18 0 0 0 0 0 0 0 0 0 0 0 0 0 0
0 1 1 2 3 1 11 16 43 50 32 22 20 8 0 12 10 0 6 28 19 17 25 14 5 62 30 3 49 110 96 27 98 26 50 37 33 18 0 1 0 0 0 0 0 0 0 0 0 0 0 0 0 0
0 0 0 0 1 1 0 0 3 11 5 4 0 3 5 0 0 0 31 9 10 16 21 13 9 14 13 8 26 78 60 40 17 19 30 33 29 17 2 0 0 0 0 0 0 0 0 0 0 0 0 0 0 0
0 0 0 0 1 1 0 0 1 4 0 4 4 3 0 0 6 16 27 28 13 20 22 19 12 9 4 42 38 49 21 49 11 10 18 36 20 10 0 0 0 0 0 0 0 0 0 0 0 0 0 0 0 0
0 0 0 0 1 0 0 0 5 2 0 0 3 4 4 9 20 15 9 12 14 15 19 23 23 18 16 13 45 33 20 40 5 37 41 12 36 29 1 0 0 0 0 0 0 0 0 0 0 0 0 0 0 0
0 0 0 0 0 0 0 2 5 5 1 6 5 13 6 6 1 2 1 4 12 13 13 40 45 40 24 51 51 38 22 14 40 18 25 59 77 71 71 33 20 23 10 2 0 0 0 0 0 0 0 0 0 0
0 0 0 0 0 0 0 2 2 0 0 1 0 1 4 20 5 5 9 13 2 6 19 24 35 35 12 27 41 13 9 17 10 14 43 24 9 87 167 108 108 81 40 7 0 0 0 0 0 0 0 0 0 0
0 0 0 0 0 0 1 0 0 0 0 3 2 2 13 12 1 6 8 11 5 5 7 9 12 7 1 0 10 47 24 19 22 26 13 5 4 5 67 68 67 41 7 0 0 0 0 0 0 0 0 0 0 0
0 1 0 0 0 0 0 0 0 0 0 18 0 1 3 3 1 7 5 3 5 2 5 4 0 3 18 9 11 17 14 10 17 16 7 2 0 0 2 94 73 41 11 0 0 0 0 0 0 0 0 0 1 1
0 0 0 0 0 0 0 0 0 0 0 0 0 0 1 4 3 5 3 0 3 0 1 0 2 14 15 4 12 20 8 5 3 2 5 5 3 1 0 82 81 60 22 0 0 0 0 0 0 0 0 1 0 0
0 0 0 0 1 0 0 0 0 0 0 0 0 0 0 1 1 2 0 0 1 0 0 6 9 15 20 6 6 3 0 1 1 1 9 16 8 4 0 11 125 81 32 0 0 0 0 0 0 0 0 0 0 0
0 0 0 0 0 0 0 0 0 0 0 0 0 0 0 0 0 0 0 0 0 0 1 3 1 10 25 13 3 15 5 8 11 5 3 6 7 3 2 0 74 53 23 0 0 0 4 13 19 7 0 0 0 0
0 0 0 0 0 0 0 0 0 0 0 0 0 0 0 0 0 0 0 0 0 4 14 14 5 10 6 2 6 17 5 6 22 6 11 5 9 4 4 54 58 31 11 6 9 2 72 63 37 36 31 18 16 0
0 0 0 0 0 0 0 0 0 0 0 0 0 0 0 0 0 0 0 0 0 1 24 2 5 33 11 0 0 2 2 7 3 2 0 2 2 8 80 102 87 137 189 83 43 39 25 113 112 62 44 41 35 25
0 0 0 0 0 0 0 1 0 0 0 0 0 0 22 55 6 56 4 45 31 48 42 45 47 36 73 15 0 1 0 13 88 41 12 8 13 7 43 85 99 127 159 188 151 147 157 148 149 61 0 44 15 29
0 0 0 0 0 0 0 1 0 0 16 31 46 37 71 122 98 73 88 79 54 11 3 9 9 8 14 4 11 40 16 26 75 84 95 62 80 93 114 114 100 147 166 206 154 104 74 25 27 0 0 10 18 6
0 2 1 0 0 0 0 0 0 0 0 37 75 49 79 90 62 142 97 128 100 73 60 6 39 121 96 76 23 32 44 13 4 2 0 192 19 208 9 0 0 0 4 26 31 19 2 2 0 14 28 1 0 2
0 0 0 0 0 0 24 41 48 37 47 55 44 45 88 89 69 54 78 66 44 36 34 35 15 18 16 24 9 4 0 9 18 8 0 3 20 3 0 0 0 0 0 4 6 2 0 0 0 1 24 63 73 40
0 0 5 31 29 66 46 46 62 83 70 88 56 37 38 60 52 32 77 59 20 0 0 0 2 2 2 0 1 1 1 1 3 0 0 0 0 0 0 0 0 0 0 0 0 0 0 0 0 0 3 3 1 2
0 58 46 0 3 10 19 6 0 6 4 5 20 2 19 26 32 66 50 0 0 0 0 0 0 0 0 0 0 0 0 0 0 0 0 0 0 0 0 0 0 0 0 0 0 0 0 0 0 0 0 0 2 7
63 71 153 49 36 2 31 34 15 8 3 5 4 3 17 27 42 22 0 0 0 0 0 0 0 0 0 0 0 0 0 0 0 0 0 0 0 0 0 0 0 0 0 0 0 0 1 0 1 6 15 26 33 34
255 165 30 1 10 64 62 88 79 57 44 50 28 4 10 12 15 10 1 0 0 0 0 0 0 0 0 0 0 0 0 0 0 0 0 0 0 0 0 0 0 0 0 0 0 0 0 0 0 0 0 0 0 0
158 28 180 8 0 22 122 187 43 30 12 10 23 33 29 26 8 0 0 0 0 0 0 0 0 0 0 0 0 0 0 0 0 0 0 0 0 0 0 0 0 0 0 0 0 0 0 0 0 0 0 0 0 0
15 69 190 179 194 46 57 56 27 51 15 9 4 1 9 18 4 0 0 0 0 0 0 0 0 0 0 0 0 0 0 0 0 0 0 0 0 0 0 0 0 0 0 0 0 0 0 0 0 0 0 1 1 0
9 151 273 100 309 235 41 37 74 0 1 1 7 22 30 46 7 0 0 0 0 0 0 0 0 0 0 0 0 0 0 0 0 0 0 0 0 0 0 0 0 0 0 0 0 0 0 0 0 0 0 4 12 8
192 38 28 6 71 245 179 80 143 256 72 88 23 20 13 36 66 0 0 0 0 0 0 0 0 0 0 0 0 0 0 0 0 0 0 0 0 0 0 0 0 0 0 0 0 0 0 0 0 1 2 5 7 7

GFSWCAN_con_sbcape_162.txt.gz
CAPE
14 10 7 9 10 31 58 66 56 83 164 146 151 230 234 214 166 257 203 413 337 39 42 47 56 62 61 43 29 38 0 9 12 17 98 90 44 14 19 4 0 0 0 0 0 0 0 0 2 0 0 12 566 345
11 10 10 11 24 47 67 64 60 89 131 138 185 210 175 236 75 231 256 180 465 409 18 28 33 19 16 26 43 9 30 1 7 102 71 87 127 79 33 26 4 10 0 0 0 0 0 0 75 1 700 813 831 711
9 14 16 21 49 66 65 64 67 60 54 44 113 111 82 96 102 149 233 105 356 113 37 6 4 5 2 1 11 29 21 13 4 13 8 1 92 145 84 47 38 9 5 0 0 0 0 0 101 525 681 831 914 707
7 17 21 41 46 61 70 63 52 55 38 24 55 10 17 35 36 21 99 374 269 134 61 4 7 4 3 19 18 9 8 23 62 1 5 5 11 229 156 137 165 26 35 0 0 1 9 53 294 678 966 990 836 811
9 10 13 19 18 34 55 39 26 53 60 43 12 21 2 12 17 63 127 116 111 78 61 30 7 3 0 6 11 8 14 17 24 16 22 19 20 86 175 125 52 54 34 66 0 12 104 10 573 1083 1048 768 748 648
4 3 8 9 8 7 11 33 20 29 37 43 12 4 13 22 8 91 68 69 57 79 79 41 9 1 0 5 41 8 31 33 19 41 29 20 0 43 26 114 101 275 175 94 198 186 294 867 832 916 853 668 510 408
1 1 4 4 4 5 21 32 64 51 44 41 35 10 1 13 41 57 86 88 8 141 6 41 35 11 73 162 82 23 14 16 17 44 38 13 30 132 26 10 143 264 33 51 139 141 266 608 842 758 638 325 0 0
0 0 1 1 1 2 3 23 52 33 38 36 33 25 11 16 15 10 15 8 29 50 20 52 29 13 4 18 33 20 15 78 90 47 30 158 246 58 40 7 34 44 31 36 198 133 304 388 334 254 43 0 0 0
0 0 0 2 1 2 6 3 12 14 17 21 15 17 30 19 16 8 5 17 6 54 43 24 48 59 35 154 294 160 42 37 32 22 81 167 208 56 5 35 103 90 67 98 150 84 89 46 8 0 0 0 0 0
0 0 0 1 2 3 3 0 1 8 5 4 8 16 18 6 0 2 16 18 25 21 15 19 20 48 6 69 42 54 79 75 87 104 141 65 67 15 5 26 5 0 13 47 59 86 22 6 1 0 0 0 0 0
0 0 0 1 1 4 2 0 4 5 1 11 14 16 20 0 10 26 23 30 21 31 10 12 10 16 24 38 36 70 14 31 59 53 97 54 73 44 10 0 41 88 78 33 24 3 4 3 2 0 0 0 0 0
0 0 0 0 2 1 0 1 4 10 1 1 4 6 19 20 25 17 14 13 13 12 11 17 16 8 34 69 31 23 11 9 15 23 12 6 2 2 30 25 48 110 132 128 83 43 42 37 15 13 9 12 17 8
0 0 0 0 2 0 0 0 3 3 1 7 8 5 4 7 2 4 11 3 6 15 9 49 26 65 69 35 51 24 6 7 34 17 6 7 6 62 47 57 45 24 10 5 2 1 1 1 0 1 0 1 1 2
0 0 0 0 1 0 0 2 2 0 11 29 25 63 35 13 3 3 1 4 13 8 25 51 39 44 49 27 38 10 14 42 4 3 3 22 23 63 68 113 102 73 22 4 0 0 0 0 0 0 0 0 0 0
1 0 0 0 0 0 1 0 0 3 18 35 21 67 12 27 26 25 44 16 13 16 17 12 25 30 30 38 31 28 9 6 6 7 20 18 29 48 72 81 105 134 89 42 1 0 0 0 0 0 0 0 1 1
3 0 0 0 0 0 0 0 0 0 4 2 13 1 7 12 8 14 11 10 19 4 5 9 52 53 41 32 14 18 10 6 5 11 63 71 105 91 212 258 253 107 44 1 0 0 1 1 1 3 4 3 4 4
1 0 0 0 0 0 0 0 0 0 6 4 2 1 21 7 12 4 18 19 10 17 44 19 22 36 11 8 10 21 10 7 4 2 24 126 98 94 174 218 195 102 4 0 0 0 5 14 22 22 19 15 11 10
0 0 0 0 0 0 0 0 0 0 0 0 0 0 0 11 0 10 8 25 8 18 22 8 8 9 10 16 16 6 9 65 111 136 142 81 98 101 167 311 287 185 40 19 6 0 0 0 0 0 0 2 29 34
0 0 0 0 0 0 0 0 0 0 0 0 1 9 12 69 111 86 72 37 24 14 15 26 22 17 31 23 28 39 20 13 54 93 120 19 32 63 196 227 256 211 60 20 7 4 3 8 3 0 0 0 0 1
0 0 0 0 0 0 0 1 0 1 23 19 21 68 65 100 63 93 67 69 16 19 20 19 15 25 54 17 10 10 7 31 69 213 143 75 23 99 309 248 241 194 109 87 30 1 18 13 8 5 0 0 0 0
0 0 0 0 0 0 0 0 19 0 17 82 144 138 198 114 105 129 96 53 56 58 46 20 17 42 18 15 62 272 219 180 114 44 117 357 366 334 332 341 295 290 186 51 23 24 22 75 68 42 33 30 7 1
1 0 0 0 0 0 9 0 3 2 87 143 147 140 106 103 95 92 102 73 61 81 72 90 239 229 389 315 233 221 232 371 386 131 21 22 63 89 156 170 377 72 103 166 149 116 112 103 95 64 41 48 15 35
0 0 0 0 0 0 24 1 254 107 28 39 99 56 77 87 81 54 76 111 160 87 127 179 215 210 381 170 170 169 97 202 195 452 687 269 182 43 28 30 45 61 125 177 216 183 134 1 46 32 54 40 40 53
0 0 0 134 198 77 99 369 183 206 138 57 36 21 26 65 75 42 63 95 436 130 96 168 177 223 93 200 50 60 65 82 73 88 43 9 13 26 5 2 1 3 20 19 23 39 73 46 7 30 55 93 44 25
0 0 21 1 282 406 114 99 52 106 85 39 43 42 45 111 51 51 69 114 63 54 50 46 23 20 27 29 24 30 51 43 50 32 35 81 85 73 80 5 0 0 0 8 34 51 63 66 71 76 64 57 72 97
17 189 86 209 288 238 372 231 216 214 238 100 69 250 234 75 53 68 84 27 0 0 0 0 0 2 0 0 0 0 0 0 4 0 0 0 0 0 1 0 0 0 0 0 0 0 8 16 20 25 35 20 5 46
12 88 281 305 360 432 376 363 364 237 72 152 74 61 56 52 63 29 40 0 0 0 0 0 0 0 0 0 0 0 0 3 2 1 0 0 0 0 0 0 0 0 0 0 0 0 0 0 2 8 38 66 91 98
469 544 392 214 396 340 272 255 171 103 42 66 36 39 47 34 18 22 18 4 0 0 1 0 0 0 0 0 0 0 0 0 1 1 11 6 2 0 0 0 0 0 0 0 0 0 0 0 1 1 3 7 37 35
335 487 478 220 271 373 346 363 172 27 24 45 40 20 7 20 11 10 19 10 7 5 3 1 0 0 0 0 0 0 0 0 0 0 0 0 0 0 0 0 0 0 0 0 0 0 0 0 0 0 3 14 20 24
550 451 540 291 216 303 419 192 15 11 0 0 5 12 18 30 10 2 2 1 0 0 0 0 0 0 0 0 0 0 0 0 0 0 0 0 0 0 0 0 0 0 0 0 0 0 0 0 0 0 1 8 22 9
579 486 510 469 468 345 346 128 21 17 17 10 1 3 8 21 24 1 0 0 0 0 0 0 0 0 0 0 0 0 0 0 0 0 0 0 1 0 0 0 0 0 0 0 0 0 0 0 0 1 1 4 11 9
479 470 407 158 494 343 309 286 151 119 14 24 25 13 29 9 56 7 0 0 0 0 0 0 0 0 0 0 0 0 0 1 0 0 0 0 0 0 0 0 0 0 0 0 1 0 1 1 1 2 2 3 7 8
633 329 416 429 414 362 551 395 304 244 186 199 120 122 118 125 53 1 0 0 0 0 0 0 0 0 0 0 0 0 0 0 0 0 0 0 0 0 0 0 0 0 1 4 4 6 5 5 5 4 4 4 4 3

GFSWCAN_con_sbcape_165.txt.gz
CAPE
2 5 7 12 10 14 43 69 56 71 66 81 60 126 108 214 209 277 152 373 408 161 125 73 81 89 44 52 38 35 78 3 3 83 69 28 17 4 19 8 14 1 0 0 0 0 0 0 0 0 62 0 0 0
2 9 21 24 22 39 61 83 62 59 54 51 46 87 83 91 64 100 323 378 486 305 112 104 111 68 63 54 24 37 6 26 49 148 181 171 82 54 48 28 14 38 0 0 0 0 0 0 0 4 0 939 736 1045
8 13 13 23 28 38 50 55 63 51 55 50 32 47 0 12 20 128 261 499 336 358 239 210 148 72 22 25 43 57 46 14 13 38 25 6 93 123 120 38 34 10 15 31 19 0 0 0 0 0 112 1029 872 893
5 8 7 12 18 26 42 80 74 49 56 46 20 15 0 0 3 44 331 434 462 141 168 164 78 54 52 52 46 40 55 25 42 56 47 19 19 74 48 12 62 38 73 28 23 0 5 0 0 0 0 541 1039 1036
3 2 1 3 12 15 26 88 88 87 54 52 28 0 0 0 0 10 52 139 225 174 99 88 19 12 23 54 37 45 43 34 37 86 21 23 6 7 5 11 3 26 88 77 69 63 32 36 10 0 18 630 1100 929
3 4 1 1 2 4 15 31 83 53 34 43 54 11 0 0 0 29 14 35 40 56 88 52 28 17 56 62 36 37 63 70 68 58 58 13 4 32 22 4 6 12 9 33 151 213 214 354 239 3 68 962 1131 1167
0 1 1 1 2 3 5 11 19 37 45 36 35 33 8 0 14 38 76 94 66 104 39 58 38 133 96 39 34 46 48 31 24 54 21 25 12 165 129 18 0 0 14 0 2 58 177 444 519 870 990 1096 766 919
0 0 1 1 2 3 5 7 8 11 25 34 27 25 22 18 20 6 12 5 40 83 38 43 22 108 134 164 155 141 27 56 46 13 24 46 58 82 73 0 0 6 0 4 29 95 139 248 653 1012 1069 790 385 269
0 0 0 1 2 3 4 7 5 11 19 19 21 15 53 38 30 19 8 25 16 75 74 45 37 73 5 97 141 40 24 67 109 50 76 204 176 197 11 21 34 23 35 56 87 137 268 299 921 1028 525 162 187 133
0 0 1 1 2 3 4 4 2 9 6 6 9 21 29 17 0 2 8 39 35 32 10 39 23 41 29 73 118 252 193 176 80 57 110 105 142 64 54 40 31 18 68 1 27 171 568 572 1009 868 239 134 35 43
0 0 0 1 1 3 6 2 5 5 0 14 12 12 4 0 23 25 19 17 13 22 17 17 17 27 18 8 80 91 4 43 177 246 236 262 199 109 109 140 86 99 4 5 27 5 437 463 369 202 95 27 11 0
4 4 3 1 1 3 2 0 3 10 20 4 7 6 14 23 23 13 8 10 15 29 21 21 14 9 10 71 58 24 32 17 17 94 129 64 127 273 308 213 214 47 40 46 57 77 282 261 207 84 35 60 67 57
4 5 4 3 2 2 0 0 3 4 2 8 11 13 9 9 4 2 2 0 3 6 10 23 31 30 40 69 27 30 13 21 19 19 15 14 0 0 43 47 94 84 132 99 194 220 234 192 202 133 132 107 98 77
3 3 3 3 0 0 0 2 1 0 7 36 39 233 41 12 6 2 0 3 0 4 6 11 29 40 83 21 10 5 7 15 5 9 4 2 3 39 56 171 98 8 0 0 0 14 34 62 60 29 18 1 2 3
2 1 0 0 0 0 0 0 0 5 14 31 36 82 48 41 25 12 26 22 6 8 21 17 32 31 30 13 22 10 13 11 8 4 22 83 17 74 91 131 110 54 31 2 0 0 0 5 6 2 1 1 4 8
1 0 0 0 0 0 0 0 4 28 16 14 28 2 2 4 2 8 37 46 95 71 29 10 66 26 24 18 8 14 7 4 24 55 90 74 13 34 74 82 69 65 72 58 59 40 5 5 6 10 5 3 6 15
1 0 0 0 0 0 0 2 5 0 11 54 104 33 0 1 2 16 22 41 90 133 28 15 42 20 30 4 6 18 27 4 5 99 183 161 85 71 91 103 138 109 93 72 105 137 134 81 45 46 32 26 6 26
0 0 0 0 0 0 0 0 0 4 55 98 124 118 148 187 160 158 22 17 73 71 35 25 12 10 28 19 59 15 28 57 150 168 158 199 153 110 108 140 148 174 144 91 19 14 2 0 1 22 27 20 19 29
0 0 0 0 0 0 0 0 1 67 64 95 163 176 233 137 195 326 41 32 19 4 21 22 5 17 22 24 20 134 168 163 184 194 105 89 131 243 242 276 208 193 198 180 140 67 78 91 6 3 1 4 29 33
0 0 0 0 0 29 55 74 43 105 69 87 129 112 105 115 155 78 62 38 14 9 22 24 55 69 139 236 221 191 593 456 279 307 157 332 339 418 353 344 316 352 207 289 133 12 57 56 12 1 2 3 5 11
0 0 0 0 0 33 39 106 93 70 106 157 83 233 115 99 145 106 108 177 48 99 173 382 418 342 646 676 695 1073 813 708 423 251 603 496 482 531 179 181 240 165 83 22 5 34 19 51 29 43 39 28 23 1
0 0 0 16 121 146 271 129 100 174 357 78 212 142 206 93 76 204 170 134 187 212 238 142 490 193 559 347 337 465 431 321 752 136 38 23 154 97 69 58 85 63 88 50 86 55 64 53 45 56 62 57 23 54
0 0 165 244 387 78 119 247 372 69 102 102 144 43 163 47 57 74 120 261 136 188 148 421 503 458 224 109 108 73 133 204 43 33 51 54 76 80 78 42 76 87 40 47 52 76 76 5 62 46 68 70 63 46
0 95 519 604 516 197 450 350 219 283 176 117 30 42 70 78 41 61 55 75 122 56 47 312 21 16 24 115 33 34 47 62 59 67 43 40 19 59 24 13 24 22 45 77 54 32 92 102 34 60 72 75 91 138
45 338 407 14 441 454 340 496 393 264 310 224 96 89 81 457 39 58 23 33 37 37 32 27 16 7 0 0 0 0 0 10 31 20 9 17 28 33 30 10 6 0 0 0 0 8 36 51 48 42 67 64 58 45
15 365 466 398 501 455 529 433 504 438 411 273 372 596 502 282 95 48 25 6 4 5 10 2 2 1 0 0 0 0 0 6 7 16 8 2 0 1 8 10 3 0 0 0 0 1 4 13 33 57 65 40 28 55
137 212 311 286 351 395 380 347 310 217 179 121 136 164 345 52 21 17 18 0 0 0 24 4 0 0 0 0 0 0 0 0 5 10 34 18 4 0 0 2 0 0 0 0 0 0 0 0 0 4 9 32 54 2
334 479 414 340 454 416 355 223 93 75 45 92 77 5 4 10 19 24 20 9 15 16 0 3 0 0 0 0 1 1 0 0 0 0 0 7 8 3 0 0 0 0 0 0 0 0 0 0 0 0 0 4 10 29
323 360 444 310 393 456 420 296 31 8 9 25 5 9 10 9 5 2 0 3 0 0 0 0 0 0 0 0 0 0 0 0 0 0 0 0 1 1 2 0 0 0 0 0 0 0 0 0 0 0 0 0 5 20
259 376 348 350 370 449 420 222 14 6 0 0 5 14 11 30 30 12 9 0 0 16 13 16 7 0 0 0 0 0 0 0 0 0 0 0 2 3 1 0 0 0 0 0 0 0 0 0 0 0 0 2 10 0
287 334 213 305 491 750 349 76 4 13 15 19 20 19 18 13 14 36 21 35 32 19 4 5 3 0 0 0 0 0 0 1 0 0 0 0 0 0 0 0 2 2 3 3 3 5 4 2 5 4 6 5 6 4
266 268 266 292 604 662 292 352 145 73 13 16 45 6 9 8 49 11 6 10 7 10 0 2 0 0 0 0 0 0 0 1 0 0 0 0 0 0 0 0 0 0 1 2 5 8 7 8 9 12 10 11 11 10
41 4 81 203 364 396 617 463 395 311 284 288 241 217 151 105 20 23 15 9 4 4 6 5 0 0 0 0 0 0 0 5 0 0 0 0 0 0 0 0 0 2 0 5 10 9 14 17 22 20 16 11 13 15

GFSWCAN_con_sbcape_168.txt.gz
CAPE
3 5 6 7 11 18 21 27 24 47 56 55 43 43 96 114 124 138 142 128 351 50 15 55 48 49 27 75 58 13 32 34 48 12 6 0 0 0 0 3 4 0 0 0 0 0 0 0 0 5 827 705 64 42
1 10 11 9 10 18 22 32 55 67 36 47 56 31 37 4 23 24 46 101 569 288 37 11 38 52 60 21 41 12 5 6 65 123 69 35 22 2 33 1 9 35 8 0 0 0 11 0 6 1 18 75 799 1725
1 3 4 9 13 15 24 41 61 86 47 25 68 47 17 0 5 37 42 418 296 233 135 89 121 83 12 0 6 29 16 3 6 12 27 13 38 141 87 66 48 52 62 71 15 6 0 1 0 0 0 0 598 786
2 3 1 1 2 3 17 33 45 56 83 39 42 64 1 1 0 0 119 310 403 245 142 104 78 115 91 79 5 2 6 2 8 22 16 19 6 21 23 0 0 2 12 132 106 108 22 44 0 0 0 0 0 470
1 2 2 1 0 1 4 16 23 18 46 49 32 35 35 0 0 0 12 63 194 174 57 51 55 57 69 92 64 38 36 29 19 14 19 6 4 4 0 1 0 0 28 84 147 153 117 179 111 0 0 0 0 193
2 2 2 2 1 2 3 6 15 22 22 31 39 21 38 2 0 18 30 18 46 64 53 41 22 2 104 65 39 57 48 49 28 24 15 11 5 1 1 3 0 0 0 0 24 0 0 31 121 236 409 556 0 253
2 2 2 3 2 4 8 8 14 20 11 24 45 32 27 26 3 14 50 53 35 22 29 57 13 124 46 49 98 74 42 38 57 38 29 18 22 30 19 19 0 0 0 0 1 0 4 51 58 105 749 1090 269 792
1 1 2 5 5 3 6 9 9 10 12 20 24 27 24 19 12 0 1 32 39 104 52 37 8 37 224 235 192 158 83 52 62 52 52 53 51 37 8 0 0 0 0 0 0 1 0 19 74 195 104 880 1039 1248
0 1 2 4 3 2 4 8 9 2 10 12 10 17 24 28 49 43 11 9 46 72 41 47 33 51 28 129 246 140 99 109 50 38 30 40 10 25 0 0 0 2 4 4 6 0 0 9 112 517 310 966 1074 864
5 5 5 6 6 4 4 7 6 0 2 1 8 1 17 46 10 13 18 23 25 32 21 29 4 17 24 73 162 165 53 40 29 8 48 64 6 0 0 0 0 45 77 17 15 0 0 0 84 87 59 989 870 570
4 2 2 2 2 6 5 4 1 1 0 10 12 8 6 3 26 27 16 12 10 15 12 14 13 8 4 36 62 60 76 91 77 101 39 42 0 1 6 0 1 36 53 18 3 0 0 5 102 123 54 486 519 470
4 2 1 1 5 5 2 0 0 5 19 4 4 2 12 22 19 10 8 9 6 9 20 12 8 9 14 42 26 17 38 33 15 59 48 92 191 285 280 151 58 24 2 7 3 0 53 119 98 51 332 580 76 173
3 0 3 4 2 0 0 0 1 4 2 12 11 10 8 6 4 1 1 1 1 2 5 12 21 15 5 52 18 20 10 15 7 15 11 19 103 107 218 258 326 283 147 114 91 115 204 334 146 122 126 9 184 121
1 2 1 0 0 0 0 0 0 0 7 9 6 101 16 15 8 2 0 2 1 2 5 13 12 17 57 12 10 4 9 7 8 6 1 9 4 1 123 438 472 258 215 252 410 485 206 171 56 9 119 181 55 191
1 1 1 0 0 0 0 0 0 0 0 18 26 1 2 2 7 9 110 50 45 16 7 8 19 13 11 6 8 7 6 5 4 3 9 57 65 21 6 161 281 224 132 75 89 9 23 2 15 18 0 0 94 116
1 0 0 0 0 0 0 0 0 0 21 1 4 0 13 12 30 49 122 120 137 33 53 26 24 17 20 15 10 7 6 1 4 72 34 75 36 21 10 31 25 40 91 28 61 0 1 0 0 0 2 4 8 27
0 0 0 0 0 0 0 0 4 26 71 108 21 0 214 98 31 134 106 160 129 10 16 15 18 13 8 3 8 21 8 21 56 62 21 49 57 63 20 4 34 40 41 67 63 2 3 0 19 79 78 62 158 168
0 0 0 0 0 0 134 0 20 45 31 124 130 106 237 458 148 83 131 95 31 3 9 4 9 11 14 22 17 56 82 119 173 127 59 60 71 96 97 75 48 39 29 53 22 29 6 20 67 74 71 137 144 154
0 0 0 0 0 0 15 10 83 98 74 59 146 268 170 204 258 215 198 190 70 8 4 12 23 21 23 38 42 47 70 247 180 117 54 56 40 46 67 105 134 95 113 71 50 77 67 69 69 67 74 90 142 144
0 0 0 0 0 262 84 143 413 317 143 193 201 131 101 259 222 173 132 200 122 28 46 81 97 113 47 45 196 185 112 261 131 80 89 74 139 164 128 95 134 69 98 92 82 54 228 92 96 125 47 95 173 134
0 0 0 0 351 295 76 54 335 110 250 433 213 187 268 203 140 87 312 98 101 135 163 522 499 333 560 453 558 353 288 376 156 59 98 188 208 18 21 27 12 78 50 50 91 93 92 115 108 87 109 3 0 0
129 0 79 199 483 291 431 76 18 171 524 339 386 92 96 196 174 85 66 19 52 198 226 426 336 192 196 428 356 470 374 77 128 33 37 43 15 35 11 57 22 10 7 7 19 20 83 21 30 77 20 31 4 18
0 0 640 701 686 294 155 451 419 400 146 173 96 27 102 48 121 28 19 66 166 90 80 101 436 248 115 206 98 57 98 217 16 4 21 31 65 61 15 9 10 8 5 31 3 3 34 14 45 10 100 34 49 44
0 403 664 489 575 415 873 460 564 374 351 368 118 30 45 205 118 17 24 42 55 50 17 108 42 11 5 27 0 0 4 19 20 5 8 28 26 63 62 15 1 0 3 12 14 12 11 27 6 39 22 29 42 44
281 174 249 43 336 361 398 380 302 284 146 321 279 324 214 387 141 48 7 13 11 15 27 13 8 8 6 3 0 0 9 1 10 10 0 0 0 1 11 28 0 0 0 0 0 0 0 0 0 1 14 0 3 16
1 289 91 155 311 373 446 306 178 94 106 261 299 236 455 363 31 22 15 17 11 1 3 11 1 0 0 2 2 0 0 0 0 2 12 8 0 0 0 0 0 0 0 0 0 0 0 0 0 0 0 0 14 22
45 93 425 379 333 270 112 110 23 30 101 172 72 57 4 8 19 11 10 4 0 0 7 4 0 0 0 0 0 0 0 0 0 0 2 7 2 1 0 0 0 0 0 0 0 0 0 0 0 0 0 0 5 20
265 265 305 442 455 298 154 100 0 1 7 22 2 6 8 3 2 0 1 0 2 0 0 4 2 0 0 0 0 0 0 0 0 0 0 0 0 0 0 0 0 0 0 0 0 0 0 0 0 0 0 0 0 11
176 211 258 219 281 225 293 199 72 6 12 0 3 4 0 3 2 3 0 0 0 4 21 13 7 0 0 0 0 0 0 0 0 0 0 0 0 0 0 0 0 0 0 0 0 0 0 0 0 0 0 0 0 2
415 220 295 331 253 343 369 280 99 3 0 0 0 0 1 2 2 2 21 38 43 41 15 12 8 0 0 0 0 0 0 0 0 0 0 0 0 0 0 0 0 0 0 1 1 2 0 0 0 2 2 1 2 0
476 137 111 364 672 672 464 250 149 52 6 5 7 5 10 11 23 33 38 65 23 17 10 7 1 0 0 0 0 0 0 3 0 0 0 0 0 0 0 0 0 0 0 0 2 3 8 4 5 5 7 7 7 5
285 15 2 124 527 581 464 347 219 187 11 11 34 15 8 19 30 27 12 21 21 14 3 10 1 0 0 0 0 0 0 8 0 0 0 0 0 0 0 0 0 0 0 0 5 7 11 6 8 1 4 0 2 3
44 11 34 79 213 449 495 495 488 249 328 206 221 161 37 30 6 7 14 14 15 9 5 2 2 3 2 1 3 0 0 0 0 0 0 0 0 0 0 0 0 1 1 8 10 12 11 5 11 16 20 19 22 16

GFSWCAN_con_sbcape_171.txt.gz
CAPE
0 1 4 3 2 3 7 12 21 35 66 59 38 57 39 38 29 38 1 104 92 25 0 0 0 0 0 0 0 0 0 0 0 0 1 0 0 0 0 0 0 0 0 0 0 0 0 0 115 247 0 44 837 873
0 1 2 3 6 5 11 16 22 39 38 56 67 43 57 20 1 17 4 11 181 53 0 0 0 0 0 0 0 0 0 0 0 7 1 0 0 0 0 0 0 0 0 0 0 0 0 0 4 0 0 1 59 474
0 0 2 3 3 4 5 18 22 37 40 26 55 45 57 27 18 7 7 71 195 101 0 0 0 0 0 0 0 0 0 0 12 0 0 5 0 0 0 2 0 0 0 0 0 0 0 0 0 0 0 0 0 0
0 0 1 3 3 2 4 8 18 26 30 20 43 48 31 48 17 0 0 61 106 81 19 0 0 0 24 1 0 0 0 0 0 0 2 3 1 0 10 0 0 0 0 0 0 0 0 0 0 0 3 0 0 0
0 0 1 3 3 4 6 7 15 27 29 23 22 41 37 37 30 0 0 4 73 87 7 0 0 1 0 0 38 3 0 0 0 0 0 0 0 0 0 0 0 0 0 0 0 0 0 0 0 0 49 23 40 48
0 0 1 4 5 7 11 9 13 22 25 24 15 31 38 33 28 0 4 6 35 40 43 29 0 0 1 34 50 8 19 2 0 0 0 0 0 0 0 0 0 0 0 0 0 0 0 0 0 0 0 0 24 9
0 0 2 3 5 7 9 9 12 13 20 14 22 26 33 29 5 0 24 31 0 17 16 22 0 19 68 2 17 45 19 22 11 0 0 0 0 0 0 0 0 0 0 0 0 0 0 0 0 0 0 0 85 69
5 7 7 8 9 9 9 8 7 9 12 16 24 13 16 28 5 5 7 33 15 54 47 18 1 0 194 82 116 43 33 14 11 4 4 0 0 0 0 0 0 0 0 0 0 0 0 0 0 0 0 27 0 458
4 2 2 1 1 2 7 6 10 8 3 17 15 7 11 2 6 21 26 15 15 37 23 25 18 59 61 112 126 120 158 62 29 4 0 2 0 2 0 0 0 0 0 0 0 0 0 0 0 0 0 0 0 24
5 1 1 4 3 3 5 2 6 2 1 4 6 0 5 7 18 14 16 9 16 26 20 13 5 0 0 77 102 74 70 16 11 0 0 1 0 0 0 0 0 0 0 0 0 0 0 0 0 0 0 1 0 1
4 1 2 2 4 0 1 3 4 2 0 1 14 7 2 14 17 13 12 10 8 6 6 6 6 1 0 11 53 84 51 69 41 17 8 5 0 0 0 0 0 0 0 0 0 0 0 0 0 0 11 29 12 121
1 1 0 2 4 3 1 0 1 2 12 4 2 0 8 13 14 10 5 4 4 5 6 12 9 16 20 27 58 34 20 17 35 44 41 10 0 16 21 3 0 0 0 0 0 0 0 0 0 0 59 68 77 240
0 1 0 2 1 0 0 0 0 3 0 5 6 6 6 2 0 0 0 0 0 2 2 3 10 8 3 7 28 15 7 9 4 13 25 4 0 0 0 0 85 0 0 0 0 33 20 20 6 118 193 56 28 2
3 1 0 0 0 0 0 0 0 0 2 4 6 1 0 0 0 0 0 0 0 0 1 7 9 12 9 19 12 3 5 4 5 5 1 2 7 11 4 16 86 186 288 151 176 128 71 298 341 252 130 108 108 91
2 0 0 0 0 0 0 0 0 0 1 8 0 0 0 1 25 38 32 32 2 0 6 9 11 17 12 3 4 4 2 3 3 1 2 16 4 1 221 360 367 454 584 559 641 417 225 263 76 52 37 17 0 7
0 0 0 0 0 0 0 0 0 0 0 8 0 28 87 72 37 2 4 1 3 0 2 1 2 8 8 3 7 3 1 0 1 8 29 43 14 2 18 75 218 228 276 313 254 248 126 53 18 7 2 5 0 1
1 0 0 0 0 0 0 0 170 5 41 35 44 31 204 83 108 57 10 25 7 0 0 1 4 3 29 7 8 7 45 32 33 24 42 62 57 27 13 18 1 0 0 3 3 8 4 4 4 0 0 2 0 0
0 0 0 0 0 0 452 8 181 82 53 34 271 50 91 180 90 113 130 2 0 0 0 0 15 15 15 27 32 33 57 44 53 51 42 23 36 58 38 16 38 13 0 0 0 3 0 0 0 0 0 43 5 2
0 0 0 0 0 0 375 256 523 161 80 187 132 200 532 343 144 117 68 113 103 32 3 16 22 11 21 34 23 28 31 32 30 30 3 3 15 27 33 42 55 47 39 52 47 8 1 12 38 11 11 0 9 11
0 0 0 0 0 138 469 640 1129 291 115 106 80 112 78 84 39 29 0 2 34 25 24 50 55 45 35 49 74 64 41 38 49 6 10 43 16 43 29 8 42 35 41 36 27 44 27 2 4 37 33 91 69 47
0 0 0 0 131 8 607 551 466 704 566 452 363 215 346 99 154 63 29 26 18 45 68 186 205 186 187 42 15 116 126 104 91 65 47 28 53 6 1 0 9 2 0 0 3 7 13 28 5 12 0 6 45 134
91 0 44 378 520 594 842 1041 485 872 881 479 180 353 229 187 125 32 42 29 27 44 44 116 30 10 10 12 5 1 104 31 4 1 5 44 21 4 0 0 4 7 6 3 0 0 1 0 0 8 4 2 5 10
0 0 507 916 588 169 74 21 4 0 14 36 476 304 260 122 28 19 27 24 52 40 19 33 233 125 35 8 0 0 0 49 5 0 20 10 22 42 0 0 0 0 0 0 0 0 0 0 0 0 4 0 6 12
0 377 734 517 538 217 780 195 40 0 0 1 155 100 32 12 32 19 6 4 20 10 0 12 7 6 4 3 0 0 0 0 11 1 0 0 0 0 0 0 0 0 0 0 0 0 0 0 0 0 0 0 0 8
579 115 413 0 563 550 410 486 512 303 275 162 305 193 4 1 43 18 15 6 1 0 0 7 0 7 0 1 0 0 0 0 0 0 1 0 0 0 0 0 0 0 0 0 0 0 0 0 0 0 0 0 0 29
0 352 34 2 36 280 313 25 14 24 6 111 89 288 74 11 5 10 9 10 15 10 3 8 14 1 0 0 0 0 0 0 0 0 8 0 0 0 0 0 0 0 0 0 0 0 0 0 0 0 0 0 0 0
8 278 577 363 99 65 108 47 0 0 0 0 5 2 1 1 6 4 4 1 9 35 19 19 57 4 0 0 0 0 0 0 0 0 3 0 0 0 0 0 0 0 0 0 0 0 0 0 0 0 0 0 0 0
41 686 347 180 314 213 236 34 17 0 0 0 0 1 1 1 0 0 0 29 31 12 13 45 60 0 0 0 0 0 0 0 0 0 0 0 0 0 0 0 0 0 0 0 0 0 0 0 0 0 0 0 0 0
239 147 161 113 26 37 283 80 30 0 0 0 0 0 0 0 0 0 0 5 39 73 77 6 0 0 0 0 0 0 0 0 0 0 0 0 0 0 0 0 0 0 0 0 0 0 0 0 0 0 0 0 0 0
29 75 379 227 147 149 128 90 1 0 0 0 0 0 0 0 0 0 6 31 53 8 0 0 0 0 0 0 0 0 0 0 0 0 0 0 0 0 0 0 0 0 0 0 0 0 0 0 0 0 0 0 0 0
110 79 221 432 334 288 172 69 1 1 0 0 8 9 5 6 6 20 44 53 11 4 0 0 0 0 0 0 0 0 0 0 0 0 0 0 0 0 0 0 0 0 0 0 3 0 0 0 0 0 0 0 0 0
340 82 61 309 515 359 292 241 193 134 28 0 9 5 0 3 25 22 14 10 6 0 0 0 0 0 0 0 0 0 0 0 0 0 0 0 0 0 0 0 0 0 0 3 0 0 0 0 0 0 0 0 0 0
220 53 5 151 463 568 593 443 356 234 270 169 100 1 9 16 1 12 5 0 0 0 0 0 0 1 5 0 0 0 0 0 0 0 0 0 0 0 0 0 0 0 6 3 2 2 2 4 12 5 3 8 11 15